Showing default

OPS 6582 (TRANSIT 5E-5), 959

Orbit data source: Space-Track

OPS 6582 (TRANSIT 5E-5), 959 is a payload satellite owned by USN BuWeps (US) in LEO that was launched on Sun, 13 Dec 1964 UTC via a THOR ABLESTAR launch vehicle from the Air Force Western Test Range (AFWTR). Payload-class satellites include a variety of spacecraft equipped with specific instruments for various scientific and technological missions. These include communications satellites like Starlink; space stations such as the ISS; scientific satellites like the Hubble; Earth observation satellites from companies like Planet Labs, Umbra, and HawkEye 360; GPS; miniature CubeSats for education and research; and military/defense satellites.

Loading next visibility...
Identifier
959, 1964-083C
Orbit
LEO
Country
Flag of USUS
Related business
Manufacturer
APL
Mission
Civil Astronomy
Bus & Motor
TRANSIT 5, Unknown motor
Mass
77 kg wet, 77 kg dry
Launch date (UTC)
1964-12-13 (61 years ago)
Launch vehicle
THOR ABLESTAR
Launch site
Air Force Western Test Range (AFWTR)
Object type
Payload
Rocket body
Debris
Shape & HBR
Oct Cyl + 4 Pan + 1 Rod, 3.0 m
Radar Cross Section
1.914 m², Large (>1 m²)

Expand to show TLE details & history
Last TLE update: 10 hours ago

TLE from 10 hours ago
0 OPS 6582 (TRANSIT 5E-5)
1 00959U 64083C   25261.25231528  .00000181  00000-0  22024-3 0  9991
2 00959  90.0082 187.0659 0043494  28.5701 124.4907 13.62381729 13189
Epoch: 2025-09-18T06:03Z
TLE epoch observation values (Epoch: 2025-09-18T06:03:20.04Z)
Latitude
26.56267°
Longitude
-81.1801°
Altitude
1,048.691 km
Speed
7.321 km/s
True Right ascension
00h 28m 16s
True Declination
26° 25' 51"
Sunlit
Object was in full shadow at epoch
Visualization orbit readout
Latitude
Unknown
Longitude
Unknown
Altitude
Unknown
Speed
Unknown
Apparent Right ascension
Unknown
Apparent Declination
Unknown
Sunlit
N/A
Visualization observer readout
Local Sidereal Time
08:50:33
Azimuth
Unknown
Elevation
Unknown
Doppler factor
Unknown
Orbital elements
Apogee altitude
1,056.276 km
Perigee altitude
991.885 km
Semi-major axis
7,402.218 km
Eccentricity
0.00435
Inclination
90.0082°
RAAN
187.0659°
Arg. of periapsis
28.5701°
True anomaly
124.90023°
Mean anomaly
124.4907°
Eccentric anomaly
124.69559°
Mean motion
3.40801 °/min
Orbital period
105.63 mins
BSTAR
0.00022024
Loading maneuver chart data...
Computing Atmospheric mass density...

Documentation

Showing up to 5 results
|